Tracking 19484 objects as of 18-Jan-2019
HD Live streaming from Space Station
objects crossing your sky now

FENGYUN 1C DEB

Track FENGYUN 1C DEB now!
10-day predictions


NORAD ID: 32325
Int'l Code: 1999-025CXS
Perigee: 718.0 km
Apogee: 815.5 km
Inclination: 99.0 °
Period: 100.0 minutes
Semi major axis: 7137 km
RCS: 0.0111 m2 (small)
Launch date: May 10, 1999
Source: People's Republic of China (PRC)
Launch site: Taiyaun Space Center, China (TSC)

Note: This is SATELLITE DEBRIS
aabbcc
Your satellite tracking list
Your tracking list is empty




NASA's NSSDC Master Catalog

Two Line Element Set (TLE):
1 32325U 99025CXS 19017.25537636  .00001036  00000-0  33767-3 0  9994
2 32325  98.9878 193.0881 0068265 295.1326  64.2789 14.39664462603023
Source of the keplerian elements: AFSPC